[[{"header":{"parameterUnit":"m.s-1","parameterCategory":1,"la1":30.2992,"la2":30.254,"lo1":-89.0895,"lo2":-89.0443,"dy":0.0025,"dx":0.0025,"nx":19,"ny":19,"refTime":"2026-04-02T03:00:00:Z","depth":0,"parameterNumber":2,"parameterNumberName":"U-component_of_WINDS"},"data":[0,0,0,-2.9746,-2.975,-2.9928,-2.9929,-3.0151,-3.0153,0,0,0,0,0,0,0,0,0,0,0,-2.9688,-2.9689,-2.9746,-2.975,-2.9928,-2.9929,-3.0151,-3.0153,0,0,0,0,0,0,0,0,0,0,0,-2.9688,-2.9689,-2.9691,-2.9751,-2.9928,-2.9929,-3.015,-3.0018,0,0,0,0,0,0,0,0,0,0,-2.9847,-2.9787,-2.9689,-2.9691,-2.9752,-2.9928,-2.9929,-3.0012,-3.0027,-3.0067,0,-3.01,0,-3.013,-3.0167,-3.0168,0,0,0,-2.9755,-2.9775,-2.9828,-2.9691,-2.9753,-2.9927,-2.9849,-3.002,-3.0037,-3.0086,-3.0103,-3.0112,-3.0134,-3.0169,-3.017,-3.0384,-3.0385,0,0,-2.9745,-2.9718,-2.9816,-2.9838,-2.9808,-2.9843,-2.9855,-3.003,-3.0048,-3.0104,-3.0117,-3.0137,-3.017,-3.0172,-3.0383,-3.0384,0,0,0,-2.9714,-2.9711,-2.9759,-2.9829,-2.9861,-2.9848,-2.9861,-3.004,-3.0058,-3.012,-3.014,-3.0171,-3.0174,-3.0383,-3.0384,-3.0394,0,0,0,-2.9708,-2.9692,-2.9755,-2.974,-2.9857,-2.9952,-2.9867,-3.0046,-3.0067,-3.0139,-3.0171,-3.0176,-3.0382,-3.0383,-3.0392,-3.0404,0,0,0,-2.9679,-2.9689,-2.9713,-2.9738,-2.9813,-2.995,-2.9978,-3.0051,-3.0079,-3.0168,-3.0176,-3.0381,-3.0383,-3.039,-3.0401,-3.0451,0,0,0,-2.964,-2.9721,-2.9712,-2.9812,-2.9812,-2.9955,-2.9977,-3.0086,-3.0164,-3.0172,-3.0382,-3.0384,-3.039,-3.0399,-3.0449,-3.0488,-3.0502,0,0,-2.9727,-2.9731,-2.9791,-2.9789,-2.9926,-2.993,-3.007,-3.0169,-3.0204,-3.0323,-3.0328,-3.0393,-3.0401,-3.0451,-3.059,-3.0601,0,0,0,-2.981,-2.9852,-2.9895,-2.9967,-3.0043,-3.0109,-3.0189,-3.0226,-3.0327,-3.0258,-3.0426,-3.0432,-3.0462,-3.0482,-3.0491,-3.0519,-3.0392,-3.0392,-3.0391,-2.9894,-2.9933,-3.0035,-3.0095,-3.0165,-3.0246,-3.0307,-3.037,-3.039,-3.0429,-3.0464,-3.0544,-3.0566,-3.0573,-3.0602,-3.0489,-3.0489,-3.0489,-3.0489,-3.0025,-3.0092,-3.0115,-3.0223,-3.0264,-3.0356,-3.0438,-3.0449,-3.0542,-3.0521,-3.055,-3.0523,-3.0584,-3.0611,-3.0491,-3.049,-3.049,-3.049,-3.049,-3.0084,-3.0122,-3.0164,-3.0272,-3.0351,-3.0411,-3.0498,-3.0533,-3.0567,-3.0596,-3.0637,-3.0637,-3.064,-3.0613,-3.0613,-3.0614,-3.0614,-3.0614,-3.0614,-3.0127,-3.0174,-3.0242,-3.0329,-3.038,-3.0452,-3.0534,-3.0586,-3.0653,-3.0672,-3.0672,-3.0688,-3.0582,-3.0554,-3.0619,-3.0618,-3.0617,-3.0617,-3.0617,-3.0244,-3.0223,-3.0328,-3.0378,-3.0484,-3.056,-3.0604,-3.0706,-3.0754,-3.0796,-3.0807,-3.0723,-3.073,-3.0723,-3.07,-3.0798,-3.0798,-3.0798,-3.0798,-3.0293,-3.0299,-3.0414,-3.0492,-3.0574,-3.0624,-3.0742,-3.0808,-3.0873,-3.0906,-3.0897,-3.087,-3.0862,-3.0874,-3.0863,-3.0842,-3.0975,-3.0975,-3.0975,-3.0366,-3.0382,-3.0475,-3.0536,-3.0622,-3.0694,-3.0807,-3.0898,-3.0968,-3.0983,-3.0932,-3.0925,-3.0882,-3.0866,-3.0877,-3.0861,-3.0823,0,0]},{"header":{"parameterUnit":"m.s-1","parameterCategory":1,"la1":30.2992,"la2":30.254,"lo1":-89.0895,"lo2":-89.0443,"dy":0.0025,"dx":0.0025,"nx":19,"ny":19,"refTime":"2026-04-02T03:00:00:Z","depth":0,"parameterNumber":3,"parameterNumberName":"V-component_of_WINDS"},"data":[0,0,0,4.4624,4.4627,4.4739,4.474,4.4889,4.489,0,0,0,0,0,0,0,0,0,0,0,4.4596,4.4597,4.4624,4.4627,4.4739,4.474,4.4888,4.489,0,0,0,0,0,0,0,0,0,0,0,4.4595,4.4596,4.4598,4.4627,4.4739,4.474,4.4888,4.4801,0,0,0,0,0,0,0,0,0,0,4.4691,4.4669,4.4596,4.4598,4.4628,4.4739,4.474,4.4797,4.4806,4.484,0,4.4873,0,4.4884,4.49,4.4901,0,0,0,4.4623,4.4661,4.4687,4.4598,4.4629,4.4739,4.4687,4.4802,4.4813,4.4853,4.4875,4.488,4.4887,4.4901,4.4902,4.5116,4.5117,0,0,4.4617,4.4618,4.468,4.4695,4.468,4.4684,4.4691,4.4809,4.4832,4.4876,4.4884,4.4889,4.4902,4.4904,4.5115,4.5116,0,0,0,4.4602,4.4614,4.4637,4.4689,4.4709,4.4687,4.4695,4.4826,4.4834,4.4885,4.4891,4.4903,4.4905,4.5113,4.5115,4.5176,0,0,0,4.4598,4.4605,4.4634,4.4636,4.4707,4.4769,4.4711,4.4826,4.4839,4.489,4.4903,4.4907,4.5112,4.5114,4.5171,4.5204,0,0,0,4.4587,4.4603,4.4621,4.4636,4.4684,4.4767,4.4782,4.4829,4.4843,4.4901,4.4907,4.5111,4.5114,4.5167,4.5198,4.5262,0,0,0,4.4574,4.4672,4.4622,4.4733,4.4684,4.4805,4.4781,4.4871,4.4928,4.4904,4.5112,4.5115,4.5166,4.5194,4.5257,4.5316,4.5341,0,0,4.4698,4.4687,4.4752,4.4711,4.4842,4.4787,4.4926,4.4976,4.498,4.507,4.5075,4.5173,4.5197,4.5261,4.5477,4.5497,0,0,0,4.4792,4.4839,4.4873,4.4929,4.4971,4.501,4.5039,4.5058,4.5135,4.5027,4.5213,4.5227,4.5265,4.5293,4.5309,4.5342,4.5128,4.5128,4.5127,4.4968,4.4969,4.5078,4.5093,4.5147,4.5177,4.5221,4.5251,4.5235,4.5279,4.5306,4.5437,4.547,4.5482,4.5516,4.5336,4.5337,4.5337,4.5337,4.515,4.5217,4.5195,4.5293,4.5294,4.5375,4.5408,4.5394,4.5469,4.5416,4.5449,4.5392,4.5504,4.5533,4.5342,4.5341,4.534,4.534,4.5339,4.5266,4.5298,4.5321,4.5403,4.5465,4.5476,4.5551,4.5547,4.5545,4.5577,4.5606,4.5605,4.5604,4.5591,4.5592,4.5592,4.5592,4.5593,4.5593,4.5377,4.5401,4.5465,4.5519,4.5555,4.5602,4.5634,4.5669,4.5707,4.5699,4.5699,4.5679,4.5515,4.5474,4.56,4.5599,4.5598,4.5597,4.5597,4.5563,4.5521,4.562,4.5656,4.572,4.5783,4.5778,4.585,4.5878,4.5915,4.5888,4.5767,4.5755,4.5742,4.5708,4.5887,4.5887,4.5887,4.5887,4.5661,4.5655,4.5757,4.5815,4.5872,4.5878,4.599,4.6016,4.6035,4.6053,4.6026,4.5981,4.5968,4.5964,4.5946,4.5914,4.6142,4.6142,4.6142,4.5776,4.5775,4.5871,4.5892,4.5942,4.5985,4.609,4.6157,4.617,4.6153,4.6067,4.6056,4.5983,4.5959,4.594,4.5912,4.5854,0,0]}]]